[[{"header":{"parameterUnit":"m.s-1","parameterCategory":1,"la1":30.2991,"la2":30.254,"lo1":-89.0895,"lo2":-89.0444,"dy":0.0017,"dx":0.0017,"nx":28,"ny":28,"refTime":"2023-07-26T21:00:00:Z","depth":0,"parameterNumber":2,"parameterNumberName":"U-component_of_WINDS"},"data":[0,0,0,0,0,0,0,0,0,0,0,0,0,0,0,0,0,0,0,0,0,0,0,0,0,0,0,0,0,0,0,0,0,0,0,0,0,0,0,0,0,0,0,0,0,0,0,0,0,0,0,0,0,0,0,0,0,0,1.5341,1.5343,0,1.5516,1.5518,1.552,1.5531,1.5529,1.5527,1.5525,1.5715,1.5722,1.5729,0,0,0,0,0,0,0,0,0,0,0,0,0,1.5026,1.5032,1.5341,1.5343,1.5345,1.5516,1.5518,1.5521,1.5531,1.5529,1.5526,1.5524,1.5713,1.5721,1.5729,0,0,0,0,0,0,0,0,0,0,0,0,0,1.5179,1.5034,1.5341,1.5371,1.5375,1.5515,1.5518,1.5521,1.5532,1.5529,1.5526,1.5523,1.571,1.572,1.573,1.5856,0,0,1.5762,1.5767,0,0,0,0,0,0,0,0,1.517,1.519,1.5364,1.5369,1.5374,1.5498,1.5477,1.5634,1.5532,1.5473,1.5525,1.5521,1.5646,1.5662,1.5701,1.5865,1.5873,1.5763,1.5769,1.5774,1.5777,0,0,0,0,0,0,0,1.5159,1.5183,1.5411,1.5367,1.5373,1.5379,1.5398,1.5507,1.5575,1.5478,1.5479,1.5499,1.5648,1.5691,1.5706,1.5876,1.5763,1.5772,1.5779,1.5783,1.6153,1.6157,0,0,0,0,0,0,1.5142,1.5174,1.5405,1.5416,1.5262,1.5387,1.5408,1.5462,1.5573,1.5587,1.5501,1.5499,1.5675,1.5694,1.5713,1.5869,1.5774,1.5784,1.579,1.615,1.6154,1.6158,0,0,0,0,0,0,1.5135,1.5162,1.5398,1.5295,1.5326,1.5396,1.5457,1.5467,1.551,1.5591,1.5604,1.5532,1.5673,1.5698,1.582,1.5875,1.5788,1.5798,1.6146,1.6151,1.6156,1.618,0,0,0,0,0,0,1.5126,1.5159,1.5205,1.5296,1.5331,1.5499,1.546,1.5472,1.5526,1.5525,1.5623,1.5637,1.5673,1.5804,1.583,1.5888,1.5806,1.6141,1.6148,1.6154,1.6174,1.6185,1.6195,0,0,0,0,0,1.5114,1.5207,1.5207,1.5235,1.5389,1.5502,1.5523,1.5559,1.5531,1.5579,1.5632,1.5634,1.5864,1.5817,1.5846,1.5908,1.6138,1.6146,1.6154,1.617,1.6183,1.6194,0,0,0,0,0,0,1.5124,1.5219,1.5221,1.5345,1.5415,1.5503,1.5565,1.5571,1.5654,1.5649,1.5694,1.5716,1.5837,1.5885,1.583,1.6036,1.5999,1.6013,1.6001,1.6014,1.6024,1.6011,1.5815,0,0,0,0,0,1.514,1.522,1.53,1.5402,1.5437,1.5495,1.5546,1.5567,1.5643,1.5674,1.5735,1.5812,1.5902,1.596,1.6048,1.6181,1.6204,1.6238,1.6248,1.6256,1.6269,1.6345,1.6362,1.6184,1.6184,1.6184,0,0,1.5175,1.5237,1.5285,1.5406,1.5462,1.5548,1.552,1.5612,1.5677,1.5689,1.5807,1.5855,1.5944,1.6072,1.6132,1.6116,1.6323,1.6266,1.6272,1.6281,1.6355,1.6372,1.6387,1.619,1.6189,1.6188,0,0,1.5283,1.5336,1.5427,1.5484,1.5569,1.5608,1.563,1.5718,1.5749,1.5867,1.5879,1.5959,1.6112,1.6175,1.6228,1.636,1.6366,1.6387,1.6441,1.6515,1.6529,1.6542,1.6591,1.6608,1.6399,1.6399,1.6399,0,1.5317,1.5442,1.5475,1.5566,1.562,1.5631,1.5726,1.5781,1.5892,1.5931,1.591,1.6103,1.6164,1.6308,1.634,1.6381,1.6411,1.6377,1.6523,1.6537,1.6549,1.6597,1.6615,1.6401,1.6401,1.6401,1.6401,0,1.5481,1.5568,1.5632,1.5735,1.5797,1.589,1.5939,1.5998,1.6015,1.6056,1.6179,1.6251,1.6354,1.639,1.6408,1.6538,1.6525,1.6513,1.6477,1.6567,1.6613,1.6631,1.6404,1.6404,1.6403,1.6402,0,0,1.5601,1.5719,1.5743,1.579,1.5885,1.5956,1.605,1.6147,1.6198,1.6275,1.6358,1.6487,1.6476,1.6536,1.6562,1.6626,1.6729,1.6607,1.661,1.6629,1.688,1.6889,1.6909,1.6733,1.6736,1.6739,1.6873,0,1.5721,1.5885,1.5917,1.6062,1.6145,1.6157,1.624,1.631,1.6351,1.6431,1.6478,1.657,1.6548,1.6584,1.6648,1.6703,1.678,1.6693,1.6814,1.6818,1.6793,1.6933,1.6943,1.7065,1.6891,1.6894,1.6896,0,1.5882,1.5959,1.6111,1.6195,1.6232,1.6305,1.6398,1.6472,1.6552,1.6578,1.6644,1.6663,1.6766,1.6723,1.6867,1.6807,1.6859,1.6893,1.6899,1.6913,1.6863,1.6953,1.7105,1.7124,1.6924,1.6922,1.692,0,1.5957,1.6099,1.6208,1.6248,1.6349,1.6401,1.6446,1.6523,1.658,1.6662,1.67,1.6794,1.6846,1.692,1.6965,1.6929,1.7107,1.7067,1.7135,1.7134,1.7173,1.7171,1.7338,1.7203,1.7203,1.7203,1.7202,0,1.6088,1.6182,1.6243,1.631,1.6416,1.6454,1.6559,1.6604,1.6673,1.6752,1.6769,1.6845,1.6898,1.6982,1.7018,1.7134,1.7157,1.7184,1.7193,1.7183,1.718,1.7219,1.7213,1.7208,1.7206,1.7205,1.7205,0,1.619,1.6235,1.6355,1.644,1.6464,1.6538,1.6613,1.6681,1.6722,1.6823,1.6849,1.6915,1.7015,1.7066,1.7191,1.7216,1.7346,1.735,1.7318,1.7322,1.7388,1.7381,1.7587,1.7617,1.7461,1.7462,1.7463,0,1.6272,1.6344,1.6435,1.6488,1.6533,1.6618,1.6675,1.6716,1.6776,1.6872,1.693,1.7029,1.7111,1.727,1.7332,1.7429,1.7436,1.7501,1.7451,1.7439,1.7439,1.7435,1.7444,1.7511,1.7512,1.7513,1.7514,0,1.6414,1.6432,1.6511,1.6599,1.6666,1.6738,1.681,1.6853,1.6906,1.6973,1.7072,1.7136,1.7262,1.7362,1.7463,1.7514,1.7525,1.7529,1.755,1.7543,1.7522,1.7536,1.7345,1.7525,1.7524,1.7523,1.7523,1.7522,1.651,1.6574,1.6649,1.6737,1.6795,1.6861,1.6929,1.6978,1.706,1.7164,1.7184,1.7291,1.7372,1.7508,1.7561,1.7648,1.7635,1.7665,1.7673,1.768,1.7684,1.7506,1.7667,1.7666,1.7666,1.7666,1.7666,0,1.6654,1.6702,1.6783,1.688,1.6951,1.695,1.703,1.709,1.7182,1.7255,1.7334,1.745,1.7547,1.7616,1.7716,1.7772,1.778,1.7797,1.7795,1.7807,1.7689,1.7662,1.7789,1.7789,1.7789,1.7789,1.7789,1.7789,1.6737,1.6847,1.6874,1.7013,1.7062,1.7163,1.7209,1.7272,1.733,1.7457,1.7536,1.7579,1.7652,1.7756,1.7847,1.7865,1.7902,1.7919,1.7938,1.7828,1.7815,1.7802,1.7777,1.7927,1.7927,1.8049,1.805,1.8051]},{"header":{"parameterUnit":"m.s-1","parameterCategory":1,"la1":30.2991,"la2":30.254,"lo1":-89.0895,"lo2":-89.0444,"dy":0.0017,"dx":0.0017,"nx":28,"ny":28,"refTime":"2023-07-26T21:00:00:Z","depth":0,"parameterNumber":3,"parameterNumberName":"V-component_of_WINDS"},"data":[0,0,0,0,0,0,0,0,0,0,0,0,0,0,0,0,0,0,0,0,0,0,0,0,0,0,0,0,0,0,0,0,0,0,0,0,0,0,0,0,0,0,0,0,0,0,0,0,0,0,0,0,0,0,0,0,0,0,-2.6523,-2.6524,0,-2.6635,-2.6636,-2.6638,-2.6595,-2.6592,-2.659,-2.6587,-2.6704,-2.6709,-2.6715,0,0,0,0,0,0,0,0,0,0,0,0,0,-2.6275,-2.6279,-2.6523,-2.6524,-2.6526,-2.6635,-2.6637,-2.6638,-2.6595,-2.6592,-2.6589,-2.6586,-2.6702,-2.6709,-2.6715,0,0,0,0,0,0,0,0,0,0,0,0,0,-2.6384,-2.6281,-2.6523,-2.6517,-2.6518,-2.6635,-2.6637,-2.6638,-2.6596,-2.6592,-2.6588,-2.6584,-2.67,-2.6708,-2.6716,-2.6845,0,0,-2.6742,-2.6745,0,0,0,0,0,0,0,0,-2.6378,-2.6393,-2.6517,-2.6518,-2.6519,-2.6597,-2.6592,-2.6708,-2.6597,-2.6566,-2.6587,-2.6583,-2.6672,-2.6682,-2.6712,-2.6851,-2.6856,-2.6742,-2.6747,-2.6751,-2.6753,0,0,0,0,0,0,0,-2.637,-2.6388,-2.6567,-2.6519,-2.652,-2.6511,-2.6522,-2.6614,-2.664,-2.6569,-2.6566,-2.658,-2.6672,-2.6704,-2.6714,-2.6857,-2.6742,-2.675,-2.6755,-2.6758,-2.711,-2.7114,0,0,0,0,0,0,-2.6362,-2.6382,-2.6564,-2.6571,-2.6437,-2.6518,-2.6531,-2.6576,-2.6638,-2.6644,-2.6583,-2.6577,-2.6692,-2.6705,-2.6718,-2.6874,-2.6751,-2.6759,-2.6763,-2.7106,-2.7111,-2.7116,0,0,0,0,0,0,-2.6357,-2.6379,-2.6559,-2.6476,-2.6498,-2.6527,-2.6578,-2.658,-2.6612,-2.6649,-2.6654,-2.6611,-2.6689,-2.6706,-2.6814,-2.6878,-2.6762,-2.677,-2.71,-2.7107,-2.7113,-2.7187,0,0,0,0,0,0,-2.635,-2.6377,-2.6425,-2.6477,-2.6503,-2.6653,-2.6581,-2.6585,-2.6627,-2.662,-2.6677,-2.6682,-2.6687,-2.6802,-2.6823,-2.6887,-2.6776,-2.7095,-2.7103,-2.7111,-2.7179,-2.7195,-2.7209,0,0,0,0,0,-2.6341,-2.6442,-2.6428,-2.645,-2.6564,-2.6656,-2.6671,-2.6674,-2.6632,-2.6681,-2.6705,-2.668,-2.6868,-2.6814,-2.6836,-2.6904,-2.7091,-2.7101,-2.7111,-2.7172,-2.7192,-2.7208,0,0,0,0,0,0,-2.6397,-2.6448,-2.6434,-2.6554,-2.6601,-2.6649,-2.6711,-2.6695,-2.6756,-2.6747,-2.6749,-2.6763,-2.6874,-2.69,-2.6839,-2.7033,-2.6973,-2.6988,-2.7012,-2.7031,-2.7046,-2.7037,-2.6783,0,0,0,0,0,-2.6423,-2.6493,-2.6535,-2.6637,-2.6661,-2.6682,-2.6723,-2.6722,-2.6771,-2.6791,-2.6822,-2.6872,-2.6942,-2.6988,-2.7054,-2.7183,-2.7195,-2.7241,-2.7256,-2.7268,-2.728,-2.7352,-2.7373,-2.7148,-2.7148,-2.7148,0,0,-2.6478,-2.6514,-2.6559,-2.6649,-2.6685,-2.6759,-2.6699,-2.6779,-2.6835,-2.6803,-2.6907,-2.6932,-2.6988,-2.7107,-2.7161,-2.7132,-2.7345,-2.728,-2.729,-2.7296,-2.7364,-2.7385,-2.7404,-2.7155,-2.7154,-2.7152,0,0,-2.6615,-2.665,-2.6739,-2.6777,-2.6833,-2.6847,-2.6869,-2.692,-2.6935,-2.7039,-2.7018,-2.7084,-2.7204,-2.7245,-2.7281,-2.7437,-2.7417,-2.7459,-2.7537,-2.7606,-2.7624,-2.764,-2.7696,-2.7716,-2.7471,-2.7472,-2.7472,0,-2.6676,-2.6785,-2.6787,-2.6869,-2.691,-2.6885,-2.6977,-2.7014,-2.7089,-2.7118,-2.7085,-2.7236,-2.7272,-2.7401,-2.7439,-2.7469,-2.7495,-2.7452,-2.7621,-2.7637,-2.7652,-2.7705,-2.7727,-2.7476,-2.7476,-2.7475,-2.7475,0,-2.6858,-2.6935,-2.7,-2.7073,-2.7122,-2.7208,-2.7224,-2.7273,-2.7269,-2.7286,-2.7394,-2.7436,-2.7511,-2.7542,-2.7538,-2.7671,-2.7651,-2.762,-2.7559,-2.7678,-2.7728,-2.7749,-2.7483,-2.7481,-2.748,-2.7479,0,0,-2.7032,-2.7106,-2.713,-2.7164,-2.7225,-2.7285,-2.7371,-2.7444,-2.7487,-2.754,-2.7613,-2.7717,-2.7689,-2.773,-2.7731,-2.7792,-2.7914,-2.7753,-2.7754,-2.7782,-2.8064,-2.8087,-2.8111,-2.7901,-2.7905,-2.7908,-2.8059,0,-2.7174,-2.7324,-2.7329,-2.7467,-2.7539,-2.7518,-2.7593,-2.764,-2.7659,-2.7724,-2.7746,-2.7819,-2.7776,-2.7801,-2.786,-2.7886,-2.797,-2.7875,-2.797,-2.7973,-2.7956,-2.8137,-2.8161,-2.8302,-2.8079,-2.8082,-2.8085,0,-2.7359,-2.7419,-2.7564,-2.7617,-2.7647,-2.7714,-2.7783,-2.7844,-2.7898,-2.7908,-2.7955,-2.7948,-2.8037,-2.7975,-2.8099,-2.8034,-2.8074,-2.8093,-2.8098,-2.8107,-2.8036,-2.8151,-2.8347,-2.8368,-2.8116,-2.8113,-2.8111,0,-2.7472,-2.7589,-2.7691,-2.772,-2.7784,-2.7832,-2.7861,-2.791,-2.7955,-2.8015,-2.8044,-2.8115,-2.8153,-2.8208,-2.822,-2.8173,-2.8345,-2.8283,-2.8357,-2.8357,-2.8393,-2.8391,-2.8599,-2.8419,-2.8419,-2.8418,-2.8418,0,-2.763,-2.772,-2.7742,-2.7805,-2.7906,-2.7912,-2.8012,-2.8037,-2.8082,-2.815,-2.8136,-2.8201,-2.8213,-2.8281,-2.8291,-2.8393,-2.8411,-2.8422,-2.8424,-2.8423,-2.8422,-2.8448,-2.8439,-2.8424,-2.8423,-2.8422,-2.8421,0,-2.7772,-2.7791,-2.7901,-2.7953,-2.7968,-2.804,-2.8085,-2.8146,-2.8165,-2.8252,-2.8273,-2.8302,-2.8382,-2.8399,-2.8494,-2.8501,-2.8622,-2.8614,-2.8604,-2.8603,-2.8676,-2.8669,-2.8908,-2.894,-2.8739,-2.8741,-2.8743,0,-2.7872,-2.794,-2.8,-2.8045,-2.8076,-2.8148,-2.8194,-2.8203,-2.8251,-2.8318,-2.8372,-2.8449,-2.8512,-2.864,-2.867,-2.8743,-2.8736,-2.8816,-2.8747,-2.8745,-2.8738,-2.8734,-2.8741,-2.8828,-2.883,-2.8832,-2.8834,0,-2.8047,-2.8053,-2.8118,-2.8189,-2.8243,-2.8299,-2.8351,-2.8389,-2.8406,-2.8461,-2.8542,-2.8591,-2.8687,-2.8765,-2.8838,-2.8869,-2.8855,-2.8855,-2.8876,-2.8876,-2.8867,-2.8873,-2.8639,-2.8849,-2.8848,-2.8846,-2.8846,-2.8845,-2.8171,-2.8231,-2.8283,-2.8357,-2.8398,-2.8449,-2.8509,-2.8536,-2.8603,-2.8682,-2.8684,-2.8773,-2.8826,-2.8922,-2.8958,-2.9028,-2.9004,-2.9034,-2.9041,-2.9049,-2.9055,-2.8857,-2.9041,-2.9041,-2.9041,-2.904,-2.904,0,-2.8345,-2.8378,-2.8446,-2.8521,-2.858,-2.8561,-2.8619,-2.867,-2.8748,-2.8799,-2.8861,-2.8955,-2.9031,-2.9068,-2.9144,-2.9193,-2.9188,-2.9212,-2.9208,-2.9216,-2.9073,-2.9047,-2.9215,-2.9215,-2.9215,-2.9215,-2.9214,-2.9214,-2.8442,-2.8544,-2.8557,-2.868,-2.8712,-2.8798,-2.8833,-2.888,-2.8921,-2.9026,-2.9089,-2.9113,-2.9159,-2.9238,-2.9307,-2.9317,-2.9345,-2.9372,-2.9378,-2.9244,-2.9226,-2.9209,-2.9185,-2.9379,-2.9379,-2.9516,-2.9517,-2.9518]}]]